Other Public Products
Issued by NWS Grand Forks, ND

Home | Current Version | Previous Version | Graphics & Text | Print | Product List | Glossary On
Versions: 1 2 3 4 5 6 7 8 9 10 11 12 13 14 15 16 17 18 19 20 21 22 23 24 25 26 27 28 29 30 31 32 33 34 35 36 37 38 39 40 41 42 43 44 45 46 47 48 49 50
000
FPUS83 KFGF 301310
OPUFGF
PRAIRIE TO PINES WEATHER ROUNDUP
NATIONAL WEATHER SERVICE EASTERN NORTH DAKOTA/GRAND FORKS ND
800 AM CDT TUE SEP 30 2014

 **SATELLITE DATA USED TO AUGMENT SKY COVER AT AUTOMATED STATIONS**
 *****  WEATHER ACROSS EASTERN NORTH DAKOTA  *****

CITY           SKY/WX    TMP DP  RH WIND       PRES   REMARKS
GRAND FORKS    MOCLDY    43  41  93 SE10      29.95F
GRAND FORKS AF CLOUDY    42  41  99 SE8       29.95R
GRAND CITY NWS   N/A     41 N/A N/A E14         N/A
BUXTON         NOT AVBL
DEVILS LAKE    CLOUDY    46  39  76 SE15      29.84F
FARGO          CLOUDY    46  42  86 SE12      29.94F
WAHPETON ARPT  CLOUDY    43  41  93 SE14G23   29.94F
$$

 *****  WEATHER ACROSS CENTRAL AND WESTERN NORTH DAKOTA  *****

CITY           SKY/WX    TMP DP  RH WIND       PRES   REMARKS
JAMESTOWN      CLOUDY    45  43  93 SE15      29.84F
BISMARCK       CLOUDY    54  50  86 E14       29.74F
MINOT          CLOUDY    49  47  93 E13       29.76F FOG
MINOT AFB      CLOUDY    49  49 100 SE16      29.76F FOG
GARRISON         N/A     53  51  93 SE10      29.75S
WILLISTON      RAIN      52  51  97 SE5       29.71F FOG
DICKINSON      LGT RAIN  51  51 100 E12       29.66F
HETTINGER      RAIN      53  52  96 E15       29.64F FOG
$$

 *****  OTHER OBSERVATIONS NORTHEAST NORTH DAKOTA  *****

CITY           SKY/WX    TMP DP  RH WIND       PRES   REMARKS
WALHALLA       CLOUDY    41  41 100 SE10      29.94F
LANGDON        FOG       43  41  93 SE16      29.89F VSB 1/2
CAVALIER       CLOUDY    41  39  93 SE6       29.95F
GRAFTON        FAIR      39  39 100 E8        29.95F
CANDO          CLOUDY    46  45  93 SE17      29.85F
FORT TOTTEN    NOT AVBL
ROLLA          CLOUDY    45  45 100 SE13      29.86F
RUGBY          CLOUDY    46  46 100 SE16G22   29.81F
 ***** THE ABOVE OBSERVATIONS ARE NON NWS ARE NOT QUALITY
        CONTROLLED AND MAY MIS-REPORT RAIN FOR SNOW...
$$

 *****  OTHER OBSERVATIONS SOUTHEAST NORTH DAKOTA *****

CITY           SKY/WX    TMP DP  RH WIND       PRES   REMARKS
COOPERSTOWN    NOT AVBL
VALLEY CITY    CLOUDY    45  45 100 SE15G21   29.88F
OAKES            N/A     46  46 100 E17       29.83F
GWINNER        CLOUDY    46  46 100 SE18G28   29.88F
BUFFALO        NOT AVBL
WYNDMERE         N/A     45  43  93 SE14        N/A
 ***** THE ABOVE OBSERVATIONS ARE NON NWS ARE NOT QUALITY
       CONTROLLED AND MAY MIS-REPORT RAIN FOR SNOW...
$$

  *****  WEATHER ACROSS NORTHERN MINNESOTA  *****

CITY           SKY/WX    TMP DP  RH WIND       PRES   REMARKS
FLAG ISLAND    CLOUDY    45  41  87 SE9       30.05F
WARROAD        CLOUDY    45  39  81 SE14G21   30.03F
ROSEAU         CLOUDY    45  39  81 SE12      30.02S
HALLOCK        MOCLDY    41  39  93 SE8       29.97F
THF RVR FALLS  CLOUDY    43  39  87 SE14      29.99S
HALSTAD          N/A     44  41  90 SE10        N/A
FOSSTON        CLOUDY    41  39  93 SE10G16   30.00S
BAUDETTE       CLOUDY    43  39  86 SE9       30.05F
WASKISH        CLOUDY    43  39  87 CALM      30.05F
CROOKSTON      CLEAR     41  39  93 SE12      29.98S
$$
  *****  WEATHER ACROSS CENTRAL AND WEST MINNESOTA  *****

CITY           SKY/WX    TMP DP  RH WIND       PRES   REMARKS
BEMIDJI        CLOUDY    42  40  94 SE15      30.03S
PARK RAPIDS    CLOUDY    41  38  89 SE14      30.03S
WADENA         CLOUDY    39  37  93 E12       30.02F FOG
DETROIT LAKES  CLOUDY    43  41  93 SE15G21   29.99F
MOORHEAD       NOT AVBL
FERGUS FALLS   CLOUDY    45  41  87 SE15      29.98S
ELBOW LAKE     CLOUDY    42  41  97 SE14G20   29.97S
MORRIS MN      CLOUDY    45  43  93 E15G23    29.95F
STAPLES        CLOUDY    39  37  93 SE8       30.05R
WHEATON        CLOUDY    43  39  87 SE13G23   29.96F
$$
  *****  WEATHER ELSEWHERE ACROSS MINNESOTA  *****

CITY           SKY/WX    TMP DP  RH WIND       PRES   REMARKS
DULUTH         CLOUDY    42  38  85 E14       30.11F
INTRNTL FALLS  CLOUDY    42  39  89 SE9       30.09F
ELY            CLOUDY    37  36  93 E6        30.14S FOG
CLOQUET        CLOUDY    43  39  87 E12G20    30.10F
BRAINERD       CLOUDY    42  40  92 SE8       30.06S
HIBBING        CLOUDY    42  38  85 E9        30.11F
ALEXANDRIA     CLOUDY    40  38  93 E15       30.00F
SAINT CLOUD    CLOUDY    44  40  85 E7        30.06S
MINNEAPOLIS    CLOUDY    42  39  89 E13       30.07F
$$

  *****  WEATHER ACROSS SOUTH DAKOTA  *****

CITY           SKY/WX    TMP DP  RH WIND       PRES   REMARKS
SIOUX FALLS    CLOUDY    53  50  89 SE14      29.86F
BROOKINGS      NOT AVBL
WATERTOWN      CLOUDY    47  45  93 SE14G22   29.86F
HURON          CLOUDY    56  50  80 SE14G23   29.75F
SISSETON         N/A     45  43  93 SE10      29.91F
ABERDEEN       MOCLDY    52  48  86 E12       29.78F
MITCHELL       CLOUDY    56  52  86 SE16G25   29.76F
PIERRE         CLOUDY    57  56  96 E29G36    29.57F
MOBRIDGE       LGT RAIN  54  51  90 E18G29    29.64F
RAPID CITY     LGT RAIN  55  54  96 N15       29.45F VSB 1
$$

  *****  SOME WEATHER IN NEARBY STATES *****

CITY           SKY/WX    TMP DP  RH WIND       PRES   REMARKS
GLASGOW MT     CLOUDY    51  49  92 SE9       29.64F
GREAT FALLS MT CLOUDY    52  45  77 SW12      29.68F
CHEYENNE WY    CLOUDY    49  35  58 W22G31    29.84R
SCOTTSBLUFF NE CLOUDY    55  45  68 W22G29    29.67F
OMAHA NE       CLOUDY    64  58  80 SE9       29.88S
DES MOINES IA  CLOUDY    59  56  89 VRB3      29.97S FOG
DAVENPORT IA   NOT AVBL
CHICAGO IL     DRIZZLE   47  44  90 N12       30.06R FOG
EAU CLAIRE WI  CLOUDY    41  36  82 E8        30.10S
LA CROSSE WI   CLOUDY    46  40  79 E13       30.09F
$$

  *****  SOME NATIONAL WEATHER *****

CITY           SKY/WX    TMP DP  RH WIND       PRES   REMARKS
LA GUARDIA NY  CLOUDY    68  63  84 NE9       29.97R
RALEIGH NC     CLOUDY    64  61  88 N3        29.96R FOG
ATLANTA GA     MOSUNNY   68  63  83 E8        29.98R
NEW ORLEANS LA MOSUNNY   77  72  84 E6        29.89R
OKLAHOMA CITY  MOCLDY    63  59  87 S5        29.92S
ALBUQUERQUE NM CLEAR     50  35  56 CALM      30.06R
SALT LAKE CITY CLOUDY    53  49  86 E7        29.96F
LOS ANGELES CA CLEAR     62  57  83 E5        29.86R
BOISE ID       LGT RAIN  53  51  93 CALM      29.92S FOG
SEATTLE WA     CLOUDY    55  51  86 SW7       30.04R
$$

*** WEATHER ACROSS MANITOBA...SASKATCHEWAN AND ONTARIO ***
                ***ONTARIO***

CITY           SKY/WX    TMP DP  RH WIND       PRES   REMARKS
GERALDTON      SUNNY     30  30 100 CALM      30.19
THUNDER BAY    PTCLDY    34  34 100 W2        30.20R
SIOUX LOOKOUT  CLOUDY    37  37 100 SE5       30.14S FOG
TORONTO        CLOUDY    63  59  88 SE7       29.87F FOG
BIG TROUT LK   CLOUDY    41  37  87 W8        30.09S
PICKLE LAKE    DRIZZLE   37  36  93 W7        30.13S FOG
DRYDEN         CLOUDY    39  37  93 SE9       30.12F
KENORA         CLOUDY    43  39  87 SE9       30.07F
$$
                *** MANITOBA***

CITY           SKY/WX    TMP DP  RH WIND       PRES   REMARKS
BRANDON        NOT AVBL
DAUPHIN        CLOUDY    45  43  93 CALM      29.84F
ISLAND LAKE    CLOUDY    46  41  81 S7        30.00F
PILOT MOUND      N/A     45  43  93 SE15G22     N/A
THE PAS        MOCLDY    45  43  93 SE12      29.78F
THOMPSON       PTCLDY    36  36 100 S6        29.88F
WINNIPEG       CLOUDY    43  43 100 SE15      29.98F
LYNN LAKE      CLOUDY    41  39  93 S8        29.73F
CHURCHILL      CLOUDY    39  37  93 E14G20    29.97S
GILLAM         MOCLDY    41  41 100 S5        29.95R
$$
                ***SASKATCHEWAN***

CITY           SKY/WX    TMP DP  RH WIND       PRES   REMARKS
ESTEVAN        LGT RAIN  50  50 100 SE10      29.74F
KINDERSLEY     MOCLDY    48  46  93 SE9       29.53F
LLOYDMINSTER   LGT RAIN  48  46  93 S6        29.54S
PRINCE ALBERT  NOT AVBL
REGINA         NOT AVBL
YORKTON        LGT RAIN  48  46  93 SE14G20   29.77F FOG



USA.gov is the U.S. government's official web portal to all federal, state and local government web resources and services.